Show Low, AZ

3:37 PM MST on August 27, 2016 (GMT -0700)
Show Low Municipal

Weather History for KSOW - March, 2014

Change the Weather History Date:

Friday, March 14, 2014

  Actual Average Record
Temperature  
Mean Temperature 41 °F -  
Max Temperature 50 °F 54 °F 71 °F (2007)
Min Temperature 32 °F 32 °F 6 °F (2006)
Degree Days  
Heating Degree Days 24    
Moisture  
Dew Point 30 °F    
Average Humidity 70    
Maximum Humidity 100    
Minimum Humidity 43    
Precipitation  
Precipitation 0.00 in - - ()
Sea Level Pressure  
Sea Level Pressure 30.10 in    
Wind  
Wind Speed 5 mph (South)    
Max Wind Speed 21 mph    
Max Gust Speed 26 mph    
Visibility 10 miles    
Events Rain , Thunderstorm    
Averages and records for this station are not official NWS values.
T = Trace of Precipitation, MM = Missing Value Source: NWS Daily Summary

Daily Weather History Graph

Daily Weather History Graph

Search for Another Location

Airport or City:

Trip Planner

Search our weather history database for the weather conditions in past years. The results will help you decide how hot, cold, wet, or windy it might be!

Date:

Astronomy

Mar. 14, 2014 Rise Set
Actual Time 6:31 AM MST 6:27 PM MST
Civil Twilight 6:06 AM MST 6:52 PM MST
Nautical Twilight 5:37 AM MST 7:21 PM MST
Astronomical Twilight 5:08 AM MST 7:50 PM MST
Moon 4:55 PM MST (3/14) 5:09 AM MST (3/14)
Length of Visible Light 12h 45m
Length of Day
11h 55m
Waxing Gibbous, 96% of the Moon is Illuminated
Mar 14
Waxing Gibbous
Mar 16
Full
Mar 23
Last Quarter
Mar 30
New
Apr 7
First Quarter

Hourly Weather History & Observations

Time (MST) Temp. Windchill Dew Point Humidity Pressure Visibility Wind Dir Wind Speed Gust Speed Precip Events Conditions
12:15 AM 39.2 °F 37.0 °F 24.8 °F 56% 30.03 in 10.0 mi WNW 3.5 mph - N/A   Clear
12:35 AM 33.8 °F 28.6 °F 23.0 °F 65% 30.04 in 10.0 mi SSE 5.8 mph - N/A   Clear
12:55 AM 35.6 °F 31.7 °F 24.8 °F 65% 30.05 in 10.0 mi SSW 4.6 mph - N/A   Scattered Clouds
1:15 AM 37.4 °F 34.9 °F 24.8 °F 60% 30.04 in 10.0 mi South 3.5 mph - N/A   Mostly Cloudy
1:35 AM 39.2 °F 37.0 °F 24.8 °F 56% 30.04 in 10.0 mi South 3.5 mph - N/A   Partly Cloudy
1:55 AM 35.6 °F - 24.8 °F 65% 30.03 in 10.0 mi Calm Calm - N/A   Scattered Clouds
2:15 AM 35.6 °F - 24.8 °F 65% 30.03 in 10.0 mi Calm Calm - N/A   Mostly Cloudy
2:35 AM 37.4 °F - 26.6 °F 65% 30.04 in 10.0 mi Calm Calm - N/A   Mostly Cloudy
2:55 AM 37.4 °F - 26.6 °F 65% 30.04 in 10.0 mi Calm Calm - N/A   Mostly Cloudy
3:15 AM 39.2 °F - 26.6 °F 61% 30.04 in 10.0 mi Calm Calm - N/A   Scattered Clouds
3:35 AM 37.4 °F - 26.6 °F 65% 30.03 in 10.0 mi Calm Calm - N/A   Partly Cloudy
3:55 AM 35.6 °F - 26.6 °F 70% 30.04 in 10.0 mi Calm Calm - N/A   Partly Cloudy
4:15 AM 37.4 °F 32.1 °F 28.4 °F 70% 30.05 in 10.0 mi SSE 6.9 mph - N/A   Mostly Cloudy
4:35 AM 37.4 °F 33.8 °F 32.0 °F 81% 30.05 in 5.0 mi ESE 4.6 mph - N/A Rain Light Rain
4:55 AM 37.4 °F 34.9 °F 32.0 °F 81% 30.05 in 10.0 mi ESE 3.5 mph - N/A   Mostly Cloudy
5:15 AM 37.4 °F 34.9 °F 32.0 °F 81% 30.05 in 10.0 mi East 3.5 mph - N/A   Overcast
5:35 AM 35.6 °F 31.7 °F 32.0 °F 87% 30.05 in 10.0 mi ESE 4.6 mph - N/A   Mostly Cloudy
5:55 AM 35.6 °F - 32.0 °F 87% 30.05 in 10.0 mi Calm Calm - N/A   Scattered Clouds
6:15 AM 35.6 °F 30.7 °F 32.0 °F 87% 30.06 in 10.0 mi East 5.8 mph - N/A   Scattered Clouds
6:35 AM 35.6 °F 31.7 °F 30.2 °F 81% 30.06 in 10.0 mi East 4.6 mph - N/A   Scattered Clouds
6:55 AM 32.0 °F 28.7 °F 28.4 °F 87% 30.07 in 10.0 mi North 3.5 mph - N/A   Partly Cloudy
7:15 AM 32.0 °F - 28.4 °F 87% 30.07 in 10.0 mi Calm Calm - N/A   Clear
7:35 AM 35.6 °F 31.7 °F 32.0 °F 87% 30.09 in 10.0 mi West 4.6 mph - N/A   Clear
7:55 AM 35.6 °F 31.7 °F 32.0 °F 87% 30.10 in 10.0 mi NNW 4.6 mph - N/A   Partly Cloudy
8:15 AM 37.4 °F 33.8 °F 32.0 °F 81% 30.11 in 10.0 mi NNE 4.6 mph - N/A   Partly Cloudy
8:35 AM 41.0 °F 35.2 °F 32.0 °F 70% 30.12 in 10.0 mi NE 9.2 mph - N/A   Clear
8:55 AM 42.8 °F 38.6 °F 32.0 °F 66% 30.13 in 10.0 mi NNE 6.9 mph - N/A   Clear
9:15 AM 42.8 °F 40.1 °F 32.0 °F 66% 30.13 in 10.0 mi NE 4.6 mph - N/A   Partly Cloudy
9:35 AM 46.4 °F 42.4 °F 32.0 °F 57% 30.13 in 10.0 mi NE 8.1 mph - N/A   Mostly Cloudy
9:55 AM 44.6 °F 40.7 °F 28.4 °F 53% 30.13 in 10.0 mi NNE 6.9 mph - N/A   Mostly Cloudy
10:15 AM 46.4 °F 44.3 °F 28.4 °F 50% 30.13 in 10.0 mi NE 4.6 mph - N/A   Mostly Cloudy
10:35 AM 48.2 °F - 28.4 °F 46% 30.13 in 10.0 mi NNW 4.6 mph - N/A   Scattered Clouds
10:55 AM 48.2 °F - 28.4 °F 46% 30.13 in 10.0 mi North 8.1 mph - N/A   Partly Cloudy
11:15 AM 48.2 °F - 28.4 °F 46% 30.12 in 10.0 mi North 8.1 mph 16.1 mph N/A   Clear
11:35 AM 50.0 °F - 28.4 °F 43% 30.12 in 10.0 mi NW 6.9 mph 16.1 mph N/A   Clear
11:55 AM 46.4 °F 41.9 °F 26.6 °F 46% 30.12 in 10.0 mi North 9.2 mph - N/A   Mostly Cloudy
12:15 PM 46.4 °F 41.5 °F 28.4 °F 50% 30.13 in 10.0 mi SSW 10.4 mph - N/A   Overcast
12:35 PM 42.8 °F 34.0 °F 32.0 °F 66% 30.12 in 10.0 mi South 20.7 mph 24.2 mph N/A Thunderstorm Mostly Cloudy
12:55 PM 41.0 °F 33.5 °F 32.0 °F 70% 30.12 in 10.0 mi South 13.8 mph - N/A   Mostly Cloudy
1:15 PM 44.6 °F 38.8 °F 32.0 °F 61% 30.11 in 10.0 mi South 11.5 mph - N/A   Scattered Clouds
1:35 PM 46.4 °F 42.4 °F 28.4 °F 50% 30.10 in 10.0 mi SSE 8.1 mph - N/A   Scattered Clouds
1:55 PM 46.4 °F 41.9 °F 26.6 °F 46% 30.10 in 10.0 mi SSE 9.2 mph - N/A   Mostly Cloudy
2:15 PM 48.2 °F - 28.4 °F 46% 30.10 in 10.0 mi South 9.2 mph - N/A   Partly Cloudy
2:35 PM 48.2 °F - 30.2 °F 50% 30.09 in 10.0 mi South 12.7 mph - N/A   Partly Cloudy
2:55 PM 46.4 °F 40.4 °F 30.2 °F 53% 30.10 in 10.0 mi South 13.8 mph - N/A   Scattered Clouds
3:15 PM 48.2 °F - 28.4 °F 46% 30.10 in 10.0 mi SW 12.7 mph - N/A   Partly Cloudy
3:35 PM 48.2 °F - 28.4 °F 46% 30.10 in 10.0 mi SSW 13.8 mph 18.4 mph N/A   Clear
3:55 PM 46.4 °F 39.8 °F 32.0 °F 57% 30.10 in 10.0 mi WSW 16.1 mph - N/A   Clear
4:15 PM 46.4 °F 40.4 °F 30.2 °F 53% 30.10 in 10.0 mi WSW 13.8 mph - N/A   Partly Cloudy
4:35 PM 44.6 °F 38.8 °F 30.2 °F 57% 30.10 in 10.0 mi SW 11.5 mph - N/A   Clear
4:55 PM 44.6 °F 38.8 °F 32.0 °F 61% 30.10 in 10.0 mi SSW 11.5 mph - N/A   Partly Cloudy
5:15 PM 44.6 °F 40.2 °F 32.0 °F 61% 30.11 in 10.0 mi SW 8.1 mph - N/A   Partly Cloudy
5:35 PM 44.6 °F 43.1 °F 32.0 °F 61% 30.13 in 10.0 mi SW 3.5 mph - N/A   Mostly Cloudy
5:55 PM 41.0 °F 32.8 °F 32.0 °F 70% 30.15 in 10.0 mi NNE 16.1 mph 26.5 mph N/A   Overcast
6:15 PM 39.2 °F 33.6 °F 32.0 °F 75% 30.16 in 10.0 mi NE 8.1 mph - N/A Rain Light Rain
6:35 PM 39.2 °F 35.0 °F 35.6 °F 87% 30.15 in 7.0 mi ESE 5.8 mph - N/A Rain Light Rain
6:55 PM 39.2 °F 35.9 °F 35.6 °F 87% 30.14 in 10.0 mi SE 4.6 mph - N/A   Mostly Cloudy
7:15 PM 39.2 °F 35.9 °F 35.6 °F 87% 30.15 in 10.0 mi SE 4.6 mph - N/A   Mostly Cloudy
7:35 PM 39.2 °F 34.2 °F 35.6 °F 87% 30.15 in 10.0 mi SW 6.9 mph - N/A   Mostly Cloudy
7:55 PM 37.4 °F 31.4 °F 35.6 °F 93% 30.15 in 10.0 mi SW 8.1 mph - N/A   Overcast
8:15 PM 37.4 °F 30.8 °F 33.8 °F 87% 30.16 in 10.0 mi SSW 9.2 mph - N/A   Mostly Cloudy
8:35 PM 37.4 °F 32.8 °F 33.8 °F 87% 30.16 in 10.0 mi SSW 5.8 mph - N/A   Scattered Clouds
8:55 PM 37.4 °F 32.1 °F 33.8 °F 87% 30.17 in 8.0 mi South 6.9 mph - N/A Rain Light Rain
9:15 PM 37.4 °F 33.8 °F 33.8 °F 87% 30.17 in 10.0 mi South 4.6 mph - N/A   Mostly Cloudy
9:35 PM 37.4 °F 32.1 °F 33.8 °F 87% 30.17 in 10.0 mi South 6.9 mph - N/A   Overcast
9:55 PM 35.6 °F 29.9 °F 32.0 °F 87% 30.16 in 10.0 mi South 6.9 mph - N/A   Scattered Clouds
10:15 PM 35.6 °F 29.9 °F 32.0 °F 87% 30.16 in 10.0 mi South 6.9 mph - N/A   Partly Cloudy
10:35 PM 35.6 °F 29.2 °F 32.0 °F 87% 30.16 in 10.0 mi South 8.1 mph - N/A   Partly Cloudy
10:55 PM 35.6 °F 29.9 °F 32.0 °F 87% 30.16 in 10.0 mi South 6.9 mph - N/A   Partly Cloudy
11:15 PM 35.6 °F 29.9 °F 32.0 °F 87% 30.16 in 10.0 mi South 6.9 mph - N/A   Partly Cloudy
11:35 PM 33.8 °F 28.6 °F 32.0 °F 93% 30.16 in 10.0 mi South 5.8 mph - N/A   Partly Cloudy
11:55 PM 32.0 °F 25.6 °F 32.0 °F 100% 30.16 in 10.0 mi South 6.9 mph - N/A   Clear